Lid_Strength_Index
4 3 3 2 1 1 1 1 1 1 1 1 1 1 0 0 1 3 3 0 3 6 6 4 4 7 7 7 10 8 9 10 10 12 13 13 14 13 13 13 14 14 15 15 15 14 15 7 7 11 9 7 7 7
4 3 2 2 1 1 1 1 2 2 2 1 1 1 1 1 1 1 4 0 0 4 5 3 4 3 3 4 6 7 9 9 10 12 12 12 13 12 14 14 11 12 12 13 13 13 10 7 8 6 6 7 7 7
3 2 2 2 1 1 1 2 2 2 2 2 2 2 2 2 2 2 4 3 3 5 5 5 6 3 3 3 2 7 8 6 7 8 10 10 12 12 14 13 12 10 8 10 10 9 8 7 6 6 6 6 6 5
3 2 2 2 1 1 2 3 3 2 2 2 2 2 2 2 2 2 5 3 4 5 9 7 3 6 3 3 3 3 5 5 7 8 9 10 12 9 12 11 10 9 8 10 10 9 8 7 6 6 5 6 6 6
3 3 3 2 1 2 3 3 3 2 2 1 2 2 2 3 3 3 3 4 3 6 9 8 5 4 4 2 3 3 4 5 6 8 9 11 10 10 10 9 11 9 10 11 12 8 7 8 6 5 6 6 5 5
3 2 2 1 2 2 3 3 2 2 1 1 2 3 2 3 3 4 7 4 3 4 7 11 6 5 4 3 4 4 5 5 6 8 8 7 7 8 11 12 9 9 8 6 7 6 6 5 5 4 5 5 4 5
3 2 2 1 2 3 3 3 2 2 2 2 2 3 3 3 4 7 8 5 3 3 7 10 9 5 4 4 5 5 4 5 6 7 8 8 8 8 12 14 10 9 8 7 5 5 7 6 6 5 4 4 4 4
3 2 2 1 2 3 3 3 2 2 2 2 2 3 3 4 4 5 4 4 3 5 7 10 10 8 4 7 8 5 7 6 7 8 7 9 10 10 12 9 9 7 6 6 6 6 5 7 6 5 4 4 5 5
3 2 2 2 3 3 3 2 2 2 2 2 3 2 4 4 6 5 2 2 3 5 9 9 11 12 5 7 6 7 6 10 7 9 9 9 10 13 11 10 8 7 6 7 6 6 6 6 6 5 5 5 5 5
3 2 3 3 3 3 3 2 1 2 2 2 4 6 8 4 1 2 4 6 6 6 6 9 7 10 7 8 9 9 8 10 12 10 9 11 11 9 9 8 6 6 6 6 7 8 8 7 6 5 5 5 4 4
2 2 2 3 3 3 3 2 2 2 3 6 7 8 6 1 3 6 8 9 8 10 7 7 7 9 6 10 10 8 10 10 13 11 12 12 12 10 9 8 7 7 7 6 5 5 5 6 6 5 5 4 4 4
2 3 3 4 3 3 2 2 2 4 5 5 5 5 6 7 8 9 10 9 10 11 8 9 8 7 7 6 9 8 11 10 13 8 11 13 10 9 9 9 8 7 8 7 7 7 7 6 6 5 5 5 5 4
3 3 3 4 3 2 2 2 1 2 3 4 5 7 8 9 13 12 14 12 11 8 7 8 9 7 7 6 9 10 11 12 8 12 13 11 8 7 8 8 8 7 6 6 7 6 6 5 5 5 5 4 3 3
3 3 4 3 2 2 1 2 1 2 5 6 8 13 11 11 11 10 10 10 7 7 8 7 8 9 7 9 9 11 10 10 13 15 14 10 8 8 9 8 7 7 6 6 6 6 5 6 6 5 4 4 4 4
4 4 3 2 1 1 1 1 2 5 6 7 8 12 11 8 8 7 6 7 7 7 8 8 8 8 9 10 10 11 13 14 13 14 11 8 6 9 9 8 8 7 6 6 6 6 6 6 5 4 4 4 4 4
4 3 3 2 1 2 2 3 4 5 5 7 8 10 8 9 9 8 8 8 8 7 8 9 10 11 11 11 12 13 14 14 12 9 7 6 7 8 8 8 7 7 6 6 6 6 6 7 5 5 5 5 5 4
4 4 2 2 2 2 2 5 4 5 6 8 9 8 8 8 9 9 8 8 7 8 11 11 12 12 10 12 13 11 12 10 9 8 6 7 8 8 7 7 7 6 6 6 6 6 7 7 5 6 6 6 5 5
4 4 2 2 2 3 4 5 5 7 9 8 9 8 8 7 8 8 8 8 8 10 10 12 11 12 13 13 12 9 8 8 8 7 7 5 5 5 5 6 6 6 6 6 7 7 8 6 6 7 6 5 5 4
4 3 2 2 2 4 6 5 5 9 8 8 8 8 8 7 7 7 7 8 8 8 9 11 12 15 14 10 10 9 7 7 7 7 6 5 5 5 6 5 6 6 6 6 7 7 7 6 7 7 7 6 6 5
2 2 2 1 2 6 6 6 5 8 9 8 8 8 8 8 8 8 8 8 8 9 10 11 11 11 10 7 6 6 6 5 5 6 7 5 5 5 6 6 6 6 7 6 6 7 7 7 7 7 6 6 5 5
3 3 2 4 5 6 7 7 7 7 6 8 8 8 9 8 8 8 9 8 9 9 10 9 10 9 7 5 5 4 5 4 5 5 6 6 5 5 6 6 5 5 6 7 6 6 6 7 6 6 5 5 5 6
4 1 4 4 5 5 6 6 7 7 7 8 8 8 9 9 9 8 8 9 9 9 9 8 8 7 8 7 5 5 4 4 4 4 5 5 5 6 5 5 6 6 6 6 6 6 5 5 5 5 5 5 5 4
3 3 5 5 7 9 9 5 8 8 10 9 8 9 9 9 9 8 9 9 8 7 7 7 6 6 6 6 4 4 5 5 6 5 5 5 5 5 5 5 5 5 6 5 5 5 5 6 6 5 5 5 4 5
3 4 6 7 7 10 6 8 7 8 8 9 10 10 10 9 9 9 10 9 8 7 7 6 6 6 6 6 7 6 5 6 7 7 7 6 7 6 6 6 5 5 4 4 4 4 4 3 5 4 4 4 4 4
7 8 8 12 7 9 10 9 9 9 10 10 10 10 9 9 10 11 11 10 9 8 7 6 6 6 7 7 6 6 5 5 5 6 5 5 5 5 5 5 5 5 4 4 4 4 4 3 3 3 3 3 3 4
10 8 10 9 9 9 9 10 10 10 10 10 9 8 8 10 11 11 10 9 8 8 7 6 6 7 7 6 6 6 5 5 5 6 5 5 5 5 5 6 6 5 4 4 4 4 4 3 3 3 3 3 5 3
11 9 8 6 7 8 9 9 8 9 10 11 9 9 10 12 12 9 8 8 8 7 6 4 5 5 5 6 5 5 5 5 4 4 5 5 5 4 4 5 5 4 3 3 3 3 3 3 3 2 2 2 2 2
7 7 10 8 8 8 9 9 9 10 9 8 8 10 10 10 10 8 8 7 6 6 6 5 5 5 5 5 5 5 5 5 5 6 6 6 6 5 4 4 4 5 3 2 2 2 2 2 2 2 2 2 2 2
8 7 7 9 8 8 8 9 9 8 7 8 9 9 9 8 7 7 7 7 7 6 6 7 6 6 6 6 6 6 5 6 6 6 6 6 6 5 5 4 4 3 3 3 5 3 2 2 2 2 2 2 2 1
8 7 8 8 9 9 7 7 7 8 8 7 7 8 8 8 7 7 7 7 7 6 6 6 6 6 6 7 7 7 7 6 5 6 7 6 6 5 4 4 4 4 2 2 2 3 5 3 4 2 2 2 2 2
7 7 8 8 8 7 7 8 8 8 7 7 7 8 8 8 7 7 7 6 6 7 6 7 7 7 6 7 7 7 7 7 7 6 5 6 6 5 4 4 4 3 3 3 2 2 3 3 3 2 3 3 3 3
7 8 8 9 8 7 7 8 8 8 8 8 8 8 8 8 8 7 6 7 7 7 6 6 7 6 6 5 5 5 7 5 6 6 6 6 6 5 4 4 4 4 3 3 3 2 3 3 3 3 2 2 2 3
7 7 7 8 8 8 8 8 8 9 9 9 9 9 8 8 9 7 6 5 5 5 6 5 5 5 6 6 5 5 6 5 6 8 8 8 8 7 5 5 4 3 3 3 3 3 3 3 3 3 3 3 3 2